FW4298 Weather Reports


Display with metric or nautical units.
time (UTC)temp
F
wind
direction
speed
MPH
gust
MPH
rain 1hr
in
rain 24hr
in
rain mn
in
humidity
%
barometer
mb
20260502151951 63 34 3.0 8.0 0.00 0.55 0.00 72 1024.6
20260502151450 63 0 3.0 8.0 0.00 0.56 0.00 72 1024.6
20260502150949 62 342 3.0 7.0 0.00 0.57 0.00 73 1024.5
20260502150449 62 351 3.0 7.0 0.00 0.59 0.00 72 1024.6
20260502130411 51 307 2.0 5.0 0.00 0.91 0.00 98 1023.4
20260502123336 47 303 1.0 3.0 0.00 0.92 0.00 97 1023.0
20260502122837 47 303 1.0 3.0 0.00 0.92 0.00 97 1022.8
20260502122600 47 304 1.0 3.0 0.00 0.92 0.00 97 1022.7
20260502121834 46 303 1.0 2.0 0.00 0.92 0.00 97 1022.7
20260502121334 46 304 1.0 3.0 0.00 0.92 0.00 97 1022.6
20260502120835 46 302 1.0 3.0 0.00 0.92 0.00 97 1022.5
20260502120332 46 303 1.0 3.0 0.00 0.92 0.00 97 1022.4
20260502115833 46 304 1.0 3.0 0.00 0.92 0.00 97 1022.3
20260502115332 46 304 1.0 3.0 0.00 0.92 0.00 97 1022.2
20260502115308 46 305 1.0 3.0 0.00 0.92 0.00 96 1022.0
20260502115033 46 305 1.0 3.0 0.00 0.92 0.00 96 1022.0
20260502113833 46 304 1.0 3.0 0.00 0.92 0.00 96 1022.0
20260502113332 47 304 1.0 4.0 0.00 0.92 0.00 96 1021.9
20260502112833 47 304 1.0 4.0 0.00 0.92 0.00 96 1021.9
20260502112556 47 304 2.0 4.0 0.00 0.93 0.00 97 1021.8
20260502111830 47 304 2.0 4.0 0.00 0.96 0.00 97 1021.8
20260502111331 47 302 2.0 4.0 0.00 0.99 0.00 97 1021.8
20260502110830 47 302 2.0 3.0 0.00 1.02 0.00 96 1021.7
20260502110330 47 313 1.0 3.0 0.00 1.04 0.00 97 1021.7
20260502105830 47 318 1.0 3.0 0.00 1.05 0.00 97 1021.6
20260502105331 47 319 1.0 3.0 0.00 1.06 0.00 97 1021.4
20260502104831 47 0 1.0 3.0 0.00 1.07 0.00 97 1021.3
20260502104331 47 320 1.0 2.0 0.00 1.08 0.00 97 1021.2
20260502103830 47 0 1.0 3.0 0.00 1.09 0.00 97 1021.0
20260502103331 47 320 1.0 3.0 0.00 1.10 0.00 97 1020.8
20260502102830 47 323 1.0 3.0 0.00 1.11 0.00 97 1020.8
20260502102331 47 323 2.0 3.0 0.00 1.12 0.00 97 1020.7
20260502101830 47 312 2.0 4.0 0.00 1.12 0.00 96 1020.7
20260502101330 47 329 2.0 4.0 0.00 1.12 0.00 96 1020.6
20260502100830 47 12 2.0 4.0 0.00 1.12 0.00 96 1020.7
20260502100812 47 0 2.0 4.0 0.00 1.13 0.00 96 1020.6
20260502100319 47 0 2.0 4.0 0.00 1.13 0.00 96 1020.8
20260502091330 48 340 2.0 5.0 0.00 1.14 0.00 97 1020.4
20260502090830 48 346 2.0 4.0 0.00 1.14 0.00 96 1020.4
20260502090331 48 342 1.0 4.0 0.00 1.14 0.00 96 1020.4
20260502071302 49 24 2.0 5.0 0.00 1.19 0.00 96 1020.3
20260502070755 49 0 2.0 5.0 0.00 1.19 0.00 96 1020.2
20260502070256 49 341 2.0 5.0 0.00 1.19 0.00 96 1020.2
20260502065754 49 10 2.0 5.0 0.00 1.19 0.00 96 1020.3
20260502065251 49 17 2.0 5.0 0.00 1.19 0.00 96 1020.3
20260502064750 49 341 2.0 5.0 0.00 1.19 0.00 96 1020.3
20260502064248 49 339 2.0 5.0 0.00 1.19 0.00 96 1020.3
20260502063746 49 346 2.0 5.0 0.00 1.19 0.00 96 1020.3
20260502063509 49 0 1.0 4.0 0.00 1.19 0.00 96 1020.2
20260502063014 50 334 1.0 3.0 0.00 1.19 0.00 96 1020.2
20260502062244 50 331 1.0 3.0 0.00 1.20 0.00 96 1020.2
20260502061743 50 332 1.0 3.0 0.00 1.20 0.00 96 1020.2
20260502061244 50 330 1.0 3.0 0.00 1.20 0.00 96 1020.2
20260502060741 50 355 1.0 3.0 0.00 1.20 0.00 96 1020.1
20260502060240 50 355 1.0 3.0 0.00 1.20 0.00 96 1020.0
20260502060001 50 10 0.0 3.0 0.00 1.20 0.00 96 1020.0
20260502055236 51 9 1.0 4.0 0.00 1.20 0.00 96 1020.1
20260502054735 51 9 2.0 5.0 0.00 1.20 0.00 96 1020.2
20260502054233 51 333 3.0 5.0 0.00 1.20 0.00 96 1020.3
20260502053734 51 340 3.0 7.0 0.00 1.20 0.00 96 1020.3
20260502053231 51 325 3.0 7.0 0.00 1.20 0.00 96 1020.3
20260502052729 51 350 2.0 5.0 0.00 1.20 0.00 96 1020.3
20260502052228 51 336 1.0 5.0 0.00 1.20 0.00 96 1020.3
20260502051726 51 348 1.0 5.0 0.00 1.20 0.00 96 1020.2
20260502051224 51 339 1.0 3.0 0.00 1.20 0.00 96 1020.1
20260502050953 51 0 1.0 3.0 0.00 1.20 0.00 96 1020.1
20260502050224 51 338 1.0 3.0 0.00 1.20 0.00 96 1020.0
20260502045723 51 335 1.0 3.0 0.00 1.21 1.20 96 1019.9
20260502045453 52 0 1.0 2.0 0.00 1.21 1.20 95 1019.9
20260502044723 52 337 1.0 2.0 0.00 1.21 1.20 95 1019.9
20260502044221 52 335 1.0 2.0 0.00 1.22 1.20 95 1019.7
20260502043721 52 335 1.0 3.0 0.00 1.22 1.20 95 1019.7
20260502043221 52 336 1.0 3.0 0.00 1.22 1.20 95 1019.9
20260502042719 53 0 1.0 4.0 0.00 1.22 1.20 95 1019.9
20260502042219 53 338 2.0 4.0 0.00 1.22 1.20 95 1019.9
20260502041719 53 333 2.0 4.0 0.00 1.22 1.20 95 1020.0
20260502041219 53 333 1.0 3.0 0.00 1.22 1.20 95 1019.7
20260502040719 53 327 1.0 3.0 0.00 1.22 1.20 95 1019.9
20260502040220 53 326 1.0 3.0 0.00 1.22 1.20 95 1019.7
20260502035718 53 351 2.0 6.0 0.00 1.22 1.20 95 1019.7
20260502035217 53 15 2.0 6.0 0.00 1.22 1.20 95 1019.7
20260502034718 54 22 2.0 5.0 0.00 1.22 1.20 95 1019.7
20260502034440 54 348 2.0 5.0 0.00 1.22 1.20 95 1019.9
20260502033717 54 334 2.0 5.0 0.00 1.22 1.20 95 1020.0
20260502033217 54 9 2.0 5.0 0.00 1.22 1.20 95 1019.9
20260502032717 54 351 3.0 9.0 0.00 1.23 1.20 95 1019.9
20260502032213 54 340 2.0 9.0 0.00 1.25 1.20 95 1019.9
20260502031712 54 340 3.0 8.0 0.00 1.26 1.20 95 1019.9
20260502031436 54 0 3.0 8.0 0.00 1.29 1.20 95 1019.9
20260502030712 54 347 3.0 6.0 0.00 1.30 1.20 95 1019.9
20260502030212 54 343 2.0 4.0 0.00 1.32 1.20 95 1019.6
20260502025713 54 338 2.0 5.0 0.00 1.34 1.20 95 1019.6
20260502025213 54 338 2.0 6.0 0.00 1.35 1.20 95 1019.6
20260502024713 54 351 2.0 6.0 0.00 1.35 1.20 95 1019.5
20260502024213 54 13 2.0 7.0 0.00 1.36 1.20 95 1019.4
20260502023709 54 22 3.0 7.0 0.00 1.36 1.20 94 1019.5
20260502023207 54 17 3.0 7.0 0.00 1.36 1.20 94 1019.4
20260502022707 54 33 3.0 8.0 0.00 1.36 1.20 94 1019.3
20260502022204 54 33 3.0 11.0 0.00 1.36 1.20 94 1019.2
20260502021704 54 27 4.0 11.0 0.00 1.36 1.20 95 1019.2
20260502021204 54 17 4.0 11.0 0.00 1.36 1.20 95 1019.1
20260502020703 54 26 4.0 11.0 0.00 1.36 1.20 96 1019.0
20260502020435 53 337 3.0 9.0 0.00 1.36 1.20 96 1018.8
20260502015702 54 9 2.0 5.0 0.00 1.36 1.20 96 1018.7
20260502015203 54 342 2.0 5.0 0.00 1.36 1.20 96 1018.4
20260502015156 54 15 2.0 6.0 0.00 1.36 1.20 96 1018.2
20260502014202 54 9 2.0 6.0 0.00 1.36 1.20 96 1018.2
20260502013703 54 11 3.0 7.0 0.00 1.36 1.20 96 1018.1
20260502013202 54 22 3.0 7.0 0.00 1.36 1.20 96 1018.2
20260502012703 54 12 3.0 6.0 0.00 1.36 1.20 96 1018.2
20260502012429 54 12 3.0 7.0 0.00 1.36 1.20 96 1018.1
20260502011928 54 27 3.0 7.0 0.00 1.36 1.20 96 1018.0
20260502011649 54 40 4.0 10.0 0.00 1.36 1.20 96 1017.9
20260502010703 54 31 4.0 10.0 0.00 1.36 1.20 96 1017.7
20260502010202 54 69 3.0 8.0 0.00 1.36 1.20 96 1017.6
20260502005703 54 25 4.0 12.0 0.00 1.36 1.20 96 1017.7
20260502005203 54 351 4.0 12.0 0.00 1.36 1.20 96 1017.5
20260502004703 54 30 5.0 12.0 0.00 1.36 1.20 96 1017.4
20260502004427 54 34 5.0 12.0 0.00 1.36 1.20 96 1017.3
20260502003703 54 9 5.0 15.0 0.00 1.36 1.20 96 1017.3
20260502003203 54 32 6.0 15.0 0.00 1.36 1.20 95 1017.1
20260502002703 53 30 7.0 15.0 0.00 1.36 1.20 96 1017.1
20260502002202 53 12 7.0 15.0 0.00 1.36 1.20 95 1017.1
20260502001703 54 30 6.0 14.0 0.00 1.36 1.20 96 1017.0
20260502001203 53 50 6.0 14.0 0.00 1.36 1.20 96 1017.0
20260502000925 53 0 6.0 14.0 0.00 1.36 1.20 96 1017.0
20260502000204 53 351 7.0 13.0 0.00 1.36 1.20 96 1017.1
20260501235658 53 27 7.0 13.0 0.00 1.36 1.20 96 1016.9
20260501235151 53 62 6.0 15.0 0.00 1.36 1.20 96 1016.9
20260501234645 53 331 8.0 14.0 0.00 1.36 1.20 96 1016.9
20260501234146 53 72 8.0 14.0 0.00 1.36 1.20 96 1016.9
20260501233646 53 355 8.0 17.0 0.00 1.36 1.20 96 1016.9
20260501233145 53 22 7.0 17.0 0.00 1.36 1.20 96 1017.0
20260501232646 53 32 6.0 15.0 0.01 1.36 1.20 96 1016.9
20260501232146 53 27 7.0 16.0 0.01 1.36 1.20 96 1016.9
20260501231647 53 20 7.0 16.0 0.02 1.37 1.20 96 1016.9
20260501231146 53 34 7.0 16.0 0.02 1.37 1.20 96 1016.8
20260501230646 53 51 9.0 22.0 0.03 1.38 1.20 96 1016.3
20260501230147 53 9 9.0 22.0 0.04 1.39 1.20 97 1016.2
20260501225646 53 11 8.0 20.0 0.05 1.37 1.20 97 1016.2
20260501225145 54 22 9.0 18.0 0.06 1.39 1.20 97 1016.2
20260501224644 54 350 9.0 19.0 0.08 1.41 1.20 97 1016.2
20260501224144 54 19 9.0 19.0 0.09 1.45 1.20 97 1016.1
20260501223644 54 10 8.0 16.0 0.12 1.45 1.20 97 1016.2
20260501223145 54 22 7.0 16.0 0.13 1.45 1.20 97 1016.0
20260501222644 54 351 8.0 18.0 0.14 1.45 1.19 97 1016.3
20260501222138 54 11 10.0 18.0 0.14 1.45 1.19 97 1016.0
20260501221633 54 59 8.0 16.0 0.13 1.45 1.18 97 1016.0
20260501221135 55 9 8.0 16.0 0.12 1.45 1.17 97 1016.3
20260501220851 55 355 8.0 16.0 0.12 1.46 1.17 97 1016.3
20260501220136 55 355 8.0 15.0 0.11 1.46 1.15 97 1016.2
20260501215901 55 9 8.0 14.0 0.10 1.37 1.14 97 1016.5
20260501215134 55 346 6.0 15.0 0.09 1.37 1.13 97 1016.3
20260501214632 55 25 5.0 15.0 0.07 1.37 1.12 97 1016.3
20260501214133 55 13 7.0 15.0 0.06 1.37 1.10 97 1016.1
20260501213632 55 335 6.0 22.0 0.03 1.37 1.08 97 1016.1
20260501213357 55 42 7.0 22.0 0.02 1.37 1.06 97 1016.0
20260501212630 55 9 8.0 22.0 0.00 1.37 1.05 97 1015.9
20260501212622 55 340 7.0 22.0 0.00 1.37 1.05 97 1015.9
20260501211631 55 20 6.0 19.0 0.00 1.37 1.05 97 1015.8
20260501211353 55 286 8.0 19.0 0.00 1.37 1.05 97 1015.4
20260501210630 55 9 8.0 19.0 0.00 1.37 1.05 97 1015.2
20260501210133 55 24 7.0 19.0 0.01 1.37 1.05 97 1014.9
20260501205631 56 13 8.0 17.0 0.01 1.37 1.05 97 1014.6
20260501205133 55 347 8.0 17.0 0.02 1.37 1.05 97 1014.5
20260501204845 55 14 8.0 19.0 0.02 1.37 1.05 97 1014.5
20260501204119 56 0 8.0 19.0 0.02 1.37 1.05 97 1014.5
20260501203614 56 334 8.0 18.0 0.02 1.37 1.05 97 1014.4
20260501203113 56 11 9.0 17.0 0.03 1.37 1.05 98 1014.2
20260501202613 56 0 9.0 17.0 0.03 1.37 1.05 98 1014.0
20260501202114 56 17 9.0 17.0 0.04 1.37 1.05 98 1014.0
20260501201614 56 351 8.0 17.0 0.06 1.37 1.05 98 1014.0
20260501201341 56 350 7.0 16.0 0.06 1.37 1.05 98 1014.1
20260501200613 56 0 7.0 15.0 0.06 1.37 1.05 98 1014.2
20260501200114 56 10 7.0 15.0 0.05 1.36 1.04 98 1014.3
20260501195613 56 18 7.0 17.0 0.05 1.36 1.04 98 1014.1
20260501195114 56 30 8.0 17.0 0.04 1.35 1.03 98 1013.8
20260501194613 56 31 7.0 17.0 0.04 1.35 1.03 98 1014.1
20260501194113 56 331 7.0 15.0 0.04 1.35 1.03 98 1014.4
20260501193832 56 9 8.0 15.0 0.04 1.35 1.03 98 1014.1
20260501193114 56 19 7.0 13.0 0.04 1.34 1.02 98 1014.7
20260501192839 56 0 6.0 13.0 0.06 1.34 1.02 98 1015.0
20260501192111 56 351 6.0 13.0 0.08 1.33 1.00 98 1015.2
20260501191611 57 0 6.0 15.0 0.07 1.31 0.99 98 1014.9
20260501191112 57 19 7.0 15.0 0.08 1.31 0.99 98 1015.0
20260501190831 56 327 7.0 17.0 0.13 1.31 0.99 98 1014.6
20260501190112 57 15 8.0 17.0 0.20 1.31 0.99 98 1014.2
20260501185829 57 13 8.0 17.0 0.21 1.32 0.99 98 1014.0
20260501185111 57 347 9.0 17.0 0.21 1.32 0.99 98 1014.0
20260501184837 57 40 8.0 14.0 0.21 1.33 0.99 98 1014.1
20260501184108 57 20 8.0 16.0 0.21 1.34 0.99 98 1014.2
20260501183831 57 29 7.0 16.0 0.21 1.34 0.99 98 1014.3
20260501183339 57 20 7.0 16.0 0.20 1.34 0.98 99 1014.4
20260501182607 56 67 7.0 16.0 0.18 1.36 0.95 98 1015.0
20260501182107 56 39 6.0 10.0 0.15 1.38 0.93 98 1015.9
20260501181607 56 16 4.0 10.0 0.14 1.39 0.92 98 1016.6
20260501181107 56 300 4.0 10.0 0.13 1.38 0.90 98 1017.3
20260501180608 56 321 5.0 12.0 0.08 1.33 0.85 98 1017.8
20260501180108 56 342 5.0 12.0 0.01 1.26 0.78 98 1018.1
20260501175607 56 348 5.0 15.0 0.00 1.25 0.78 98 1017.8
20260501175107 56 322 6.0 15.0 0.00 1.25 0.78 98 1017.1
20260501174833 56 322 6.0 14.0 0.00 1.25 0.78 98 1016.1
20260501174327 56 36 6.0 14.0 0.00 1.25 0.78 98 1015.5
20260501173605 56 11 5.0 13.0 0.00 1.25 0.78 98 1015.4
20260501173105 56 53 5.0 11.0 0.00 1.25 0.78 98 1015.1
20260501172603 56 9 6.0 12.0 0.00 1.25 0.78 98 1015.2
20260501172102 56 10 6.0 13.0 0.00 1.25 0.78 98 1015.3
20260501171831 56 69 6.0 13.0 0.00 1.25 0.78 98 1015.1
20260501171103 57 11 6.0 12.0 0.00 1.25 0.78 98 1014.8
20260501170604 57 32 6.0 11.0 0.00 1.25 0.78 98 1014.8
20260501165602 57 46 7.0 15.0 0.01 1.25 0.78 98 1014.8
20260501165101 57 11 6.0 13.0 0.01 1.25 0.78 98 1014.8
20260501164554 57 32 6.0 13.0 0.01 1.25 0.78 98 1014.9
20260501164048 57 52 6.0 13.0 0.02 1.25 0.78 98 1015.0
20260501163546 57 32 5.0 13.0 0.04 1.25 0.78 98 1014.9
20260501163044 57 19 5.0 11.0 0.06 1.25 0.78 98 1015.0
20260501162543 57 9 6.0 12.0 0.10 1.25 0.78 98 1015.1
20260501162043 57 67 6.0 16.0 0.12 1.25 0.78 98 1014.8
20260501161541 57 17 6.0 16.0 0.14 1.25 0.78 98 1014.5
20260501161041 57 63 7.0 18.0 0.15 1.25 0.78 98 1014.6
20260501160541 57 74 6.0 18.0 0.17 1.25 0.77 98 1014.5
20260501160041 57 75 6.0 14.0 0.17 1.24 0.77 98 1014.3